• In Netherlands
  • List of Countries
  • For 7 days
  • Water Temperature
  • Satellite Maps
  • Weather Map
  • Weather Widgets
  • user-avatar
    Login

    Hourly Weather Vanadzor

    Today, 17 August, Thursday

    Time Temperature Precipitation Wind Pressure Humidity
    00:00 +16°C° 0.5 mm 1 mps 636 mmHg 72%
    01:00 +15°C° 0.4 mm 1 mps 636 mmHg 76%
    02:00 +14°C° 0.4 mm 1 mps 636 mmHg 81%
    03:00 +14°C° 0 mm 1 mps 635 mmHg 82%
    04:00 +14°C° 0 mm 1 mps 635 mmHg 82%
    05:00 +14°C° 0 mm 1 mps 636 mmHg 83%
    06:00 +15°C° 0 mm 1 mps 636 mmHg 83%
    07:00 +16°C° 0.1 mm 1 mps 636 mmHg 76%
    08:00 +18°C° 0.1 mm 2 mps 637 mmHg 69%
    09:00 +21°C° 0 mm 2 mps 638 mmHg 58%
    10:00 +23°C° 0.2 mm 2 mps 638 mmHg 54%
    11:00 +24°C° 0.2 mm 3 mps 638 mmHg 50%
    12:00 +26°C° 0.2 mm 3 mps 638 mmHg 45%
    13:00 +26°C° 0.5 mm 3 mps 638 mmHg 47%
    14:00 +26°C° 0.5 mm 3 mps 637 mmHg 49%
    15:00 +23°C° 0 mm 2 mps 637 mmHg 56%
    16:00 +23°C° 0.6 mm 2 mps 637 mmHg 59%
    17:00 +21°C° 0.6 mm 2 mps 637 mmHg 61%
    18:00 +21°C° 0.6 mm 2 mps 636 mmHg 64%
    19:00 +19°C° 0.2 mm 2 mps 636 mmHg 72%
    20:00 +17°C° 0.2 mm 2 mps 636 mmHg 79%
    21:00 +16°C° 0.2 mm 2 mps 636 mmHg 86%
    22:00 +15°C° 0.1 mm 2 mps 636 mmHg 87%
    23:00 +15°C° 0.1 mm 2 mps 636 mmHg 89%

    Tomorrow, 18 August, Friday

    Time Temperature Precipitation Wind Pressure Humidity
    00:00 +15°C° 0.1 mm 2 mps 636 mmHg 90%
    01:00 +14°C° 0 mm 2 mps 635 mmHg 91%
    02:00 +14°C° 0 mm 2 mps 635 mmHg 91%
    03:00 +13°C° 0 mm 2 mps 635 mmHg 92%
    04:00 +13°C° 0 mm 2 mps 635 mmHg 91%
    05:00 +13°C° 0 mm 1 mps 635 mmHg 90%
    06:00 +14°C° 0 mm 1 mps 635 mmHg 89%
    07:00 +16°C° 0 mm 1 mps 636 mmHg 79%
    08:00 +20°C° 0 mm 1 mps 637 mmHg 68%
    09:00 +23°C° 0 mm 1 mps 638 mmHg 57%
    10:00 +24°C° 0 mm 2 mps 638 mmHg 52%
    11:00 +26°C° 0 mm 2 mps 638 mmHg 48%
    12:00 +27°C° 0 mm 2 mps 638 mmHg 43%
    13:00 +27°C° 0.1 mm 2 mps 638 mmHg 42%
    14:00 +28°C° 0.1 mm 2 mps 638 mmHg 42%
    15:00 +28°C° 0.1 mm 2 mps 638 mmHg 41%
    16:00 +27°C° 0.5 mm 2 mps 638 mmHg 47%
    17:00 +26°C° 0.5 mm 2 mps 637 mmHg 52%
    18:00 +24°C° 0.5 mm 2 mps 637 mmHg 58%
    19:00 +21°C° 0.2 mm 2 mps 637 mmHg 65%
    20:00 +20°C° 0.2 mm 2 mps 637 mmHg 71%
    21:00 +18°C° 0.2 mm 2 mps 637 mmHg 78%
    22:00 +17°C° 0 mm 2 mps 637 mmHg 79%
    23:00 +17°C° 0 mm 2 mps 637 mmHg 80%

    Day after tomorrow, 19 August, Saturday

    Time Temperature Precipitation Wind Pressure Humidity
    00:00 +16°C° 0 mm 2 mps 637 mmHg 80%
    01:00 +15°C° 0 mm 2 mps 637 mmHg 81%
    02:00 +15°C° 0 mm 2 mps 637 mmHg 81%
    03:00 +14°C° 0 mm 2 mps 637 mmHg 82%
    04:00 +14°C° 0 mm 2 mps 637 mmHg 80%
    05:00 +14°C° 0 mm 2 mps 637 mmHg 79%
    06:00 +14°C° 0 mm 2 mps 637 mmHg 77%
    07:00 +17°C° 0 mm 2 mps 638 mmHg 68%
    08:00 +19°C° 0 mm 2 mps 639 mmHg 59%
    09:00 +23°C° 0 mm 2 mps 639 mmHg 50%
    10:00 +24°C° 0 mm 2 mps 640 mmHg 47%
    11:00 +26°C° 0 mm 3 mps 640 mmHg 43%
    12:00 +27°C° 0 mm 3 mps 640 mmHg 39%
    13:00 +27°C° 0 mm 3 mps 640 mmHg 39%
    14:00 +28°C° 0 mm 3 mps 640 mmHg 38%
    15:00 +28°C° 0 mm 3 mps 639 mmHg 37%
    16:00 +27°C° 0 mm 3 mps 639 mmHg 41%
    17:00 +25°C° 0 mm 3 mps 639 mmHg 45%
    18:00 +24°C° 0 mm 3 mps 638 mmHg 49%
    19:00 +21°C° 0 mm 2 mps 638 mmHg 52%
    20:00 +19°C° 0 mm 2 mps 638 mmHg 55%
    21:00 +17°C° 0 mm 2 mps 638 mmHg 58%
    22:00 +17°C° 0 mm 2 mps 638 mmHg 57%
    23:00 +16°C° 0 mm 2 mps 638 mmHg 56%

    20 August, Sunday

    Time Temperature Precipitation Wind Pressure Humidity
    00:00 +15°C° 0 mm 2 mps 638 mmHg 55%
    01:00 +15°C° 0 mm 2 mps 638 mmHg 55%
    02:00 +14°C° 0 mm 2 mps 638 mmHg 56%
    03:00 +14°C° 0 mm 2 mps 638 mmHg 56%
    04:00 +14°C° 0 mm 2 mps 638 mmHg 57%
    05:00 +14°C° 0 mm 2 mps 638 mmHg 57%
    06:00 +14°C° 0 mm 2 mps 638 mmHg 58%
    07:00 +17°C° 0 mm 2 mps 639 mmHg 52%
    08:00 +20°C° 0 mm 2 mps 639 mmHg 45%
    09:00 +23°C° 0 mm 2 mps 640 mmHg 39%
    10:00 +25°C° 0 mm 2 mps 640 mmHg 36%
    11:00 +26°C° 0 mm 2 mps 640 mmHg 34%
    12:00 +28°C° 0 mm 3 mps 640 mmHg 31%
    13:00 +28°C° 0 mm 3 mps 640 mmHg 31%
    14:00 +28°C° 0 mm 3 mps 640 mmHg 30%
    15:00 +29°C° 0 mm 3 mps 639 mmHg 29%
    16:00 +27°C° 0 mm 3 mps 639 mmHg 33%
    17:00 +26°C° 0 mm 3 mps 639 mmHg 38%
    18:00 +24°C° 0 mm 2 mps 638 mmHg 42%
    19:00 +21°C° 0 mm 2 mps 638 mmHg 45%
    20:00 +19°C° 0 mm 2 mps 638 mmHg 47%
    21:00 +17°C° 0 mm 2 mps 638 mmHg 50%
    22:00 +16°C° 0 mm 2 mps 638 mmHg 50%
    23:00 +16°C° 0 mm 2 mps 638 mmHg 50%

    21 August, Monday

    Time Temperature Precipitation Wind Pressure Humidity
    00:00 +15°C° 0 mm 2 mps 638 mmHg 50%
    01:00 +15°C° 0 mm 2 mps 637 mmHg 51%
    02:00 +15°C° 0 mm 2 mps 637 mmHg 51%
    03:00 +14°C° 0 mm 2 mps 637 mmHg 52%
    04:00 +14°C° 0 mm 2 mps 637 mmHg 53%
    05:00 +15°C° 0 mm 2 mps 637 mmHg 53%
    06:00 +15°C° 0 mm 2 mps 637 mmHg 54%
    07:00 +18°C° 0 mm 2 mps 638 mmHg 48%
    08:00 +21°C° 0 mm 2 mps 639 mmHg 42%
    09:00 +25°C° 0 mm 1 mps 640 mmHg 36%
    10:00 +26°C° 0 mm 2 mps 640 mmHg 33%
    11:00 +27°C° 0 mm 2 mps 640 mmHg 30%
    12:00 +29°C° 0 mm 2 mps 640 mmHg 28%
    13:00 +29°C° 0 mm 3 mps 639 mmHg 28%
    14:00 +29°C° 0 mm 3 mps 639 mmHg 27%
    15:00 +30°C° 0 mm 3 mps 639 mmHg 27%
    16:00 +28°C° 0 mm 2 mps 638 mmHg 31%
    17:00 +27°C° 0 mm 2 mps 638 mmHg 36%
    18:00 +25°C° 0 mm 2 mps 637 mmHg 41%
    19:00 +23°C° 0 mm 2 mps 637 mmHg 46%
    20:00 +20°C° 0 mm 2 mps 637 mmHg 50%
    21:00 +18°C° 0 mm 2 mps 637 mmHg 54%
    22:00 +17°C° 0 mm 2 mps 637 mmHg 55%
    23:00 +17°C° 0 mm 2 mps 637 mmHg 56%

    22 August, Tuesday

    Time Temperature Precipitation Wind Pressure Humidity
    00:00 +16°C° 0 mm 2 mps 637 mmHg 56%
    01:00 +16°C° 0 mm 2 mps 636 mmHg 57%
    02:00 +15°C° 0 mm 2 mps 636 mmHg 57%
    03:00 +15°C° 0 mm 2 mps 636 mmHg 57%
    04:00 +15°C° 0 mm 2 mps 636 mmHg 57%
    05:00 +15°C° 0 mm 1 mps 636 mmHg 57%
    06:00 +16°C° 0 mm 1 mps 637 mmHg 57%
    07:00 +20°C° 0 mm 1 mps 637 mmHg 49%
    08:00 +23°C° 0 mm 2 mps 638 mmHg 40%
    09:00 +26°C° 0 mm 2 mps 639 mmHg 32%
    10:00 +27°C° 0 mm 2 mps 639 mmHg 30%
    11:00 +29°C° 0 mm 2 mps 639 mmHg 28%
    12:00 +30°C° 0 mm 2 mps 639 mmHg 26%
    13:00 +31°C° 0 mm 2 mps 639 mmHg 26%
    14:00 +31°C° 0 mm 2 mps 638 mmHg 26%
    15:00 +31°C° 0 mm 2 mps 638 mmHg 25%
    16:00 +30°C° 0 mm 2 mps 638 mmHg 30%
    17:00 +28°C° 0 mm 2 mps 637 mmHg 35%
    18:00 +27°C° 0 mm 2 mps 637 mmHg 40%
    19:00 +24°C° 0 mm 2 mps 637 mmHg 44%
    20:00 +21°C° 0 mm 2 mps 636 mmHg 48%
    21:00 +19°C° 0 mm 2 mps 636 mmHg 52%
    22:00 +18°C° 0 mm 2 mps 636 mmHg 52%
    23:00 +18°C° 0 mm 2 mps 636 mmHg 53%
    Show more